Date String (YYYY-MM-DD hh:mm:ss) UTC,Instrument flags,absolute air pressure of the measurement (hPa),sample flow rate (lpm),inlet stack bypass flow (lpm),air temperature of the measurement (°C),ambient temperature measured by the external sensor (°C),aerosol sample conditioner tube jacket temperature (°C),OPC LED temperature (°C),internal box temperature (°C),relative humidity of the measurement (%),span deviation,mass concentration of particles derived from Lorenz-Mie calculation of OPC scattering (μg/m³),mass concentration of particles derived from Lorenz-Mie calculation of OPC scattering (μg/m³),mass concentration of particles derived from Lorenz-Mie calculation of OPC scattering (μg/m³)
DateTimeUTC,F1_M11,P_M11,Q1_M11,Q2_M11,T1_M11,T2_M11,T3_M11,T4_M11,T5_M11,U1_M11,ZSPAN_M11,X2_M11,X0_M11,X1_M11
2024-05-25 06:00:00,SystemResetWarning,0823.5,5.00,000.00,030.8,030.0,000.0,039.2,032.4,010.9,0000.0,0003.85,0013.29,0002.32
2024-05-25 06:01:00,SystemResetWarning,0823.5,5.00,000.00,030.8,030.0,000.0,039.2,032.4,011.1,0000.0,0003.88,0012.94,0002.34
2024-05-25 06:02:00,SystemResetWarning,0823.5,5.01,000.00,030.8,030.0,000.0,039.2,032.4,011.1,0000.0,0003.90,0013.05,0002.34
2024-05-25 06:03:00,SystemResetWarning,0823.6,5.00,000.00,030.8,030.0,000.0,039.2,032.4,011.0,0000.0,0003.93,0012.89,0002.34
2024-05-25 06:04:00,SystemResetWarning,0823.6,5.00,000.00,030.8,029.9,000.0,039.2,032.4,011.1,0000.0,0003.93,0012.00,0002.34
2024-05-25 06:05:00,SystemResetWarning,0823.6,5.00,000.00,030.8,029.9,000.0,039.2,032.4,011.4,0000.0,0004.01,0011.89,0002.36
2024-05-25 06:06:00,SystemResetWarning,0823.6,5.00,000.00,030.8,029.9,000.0,039.2,032.4,011.4,0000.0,0004.07,0011.35,0002.38
2024-05-25 06:07:00,SystemResetWarning,0823.6,5.00,000.00,030.8,029.9,000.0,039.2,032.4,011.4,0000.0,0004.07,0011.16,0002.37
2024-05-25 06:08:00,SystemResetWarning,0823.5,5.00,000.00,030.8,029.9,000.0,039.2,032.4,011.5,0000.0,0004.05,0011.09,0002.36
2024-05-25 06:09:00,SystemResetWarning,0823.6,5.00,000.00,030.8,029.9,000.0,039.2,032.4,011.5,0000.0,0004.04,0011.32,0002.36
2024-05-25 06:10:00,SystemResetWarning,0823.6,5.00,000.00,030.8,029.9,000.0,039.2,032.4,011.8,0000.0,0004.00,0010.95,0002.37
2024-05-25 06:11:00,SystemResetWarning,0823.6,5.01,000.00,030.7,029.9,000.0,039.2,032.4,011.9,0000.0,0004.03,0011.35,0002.38
2024-05-25 06:12:00,SystemResetWarning,0823.6,5.01,000.00,030.7,029.9,000.0,039.2,032.4,011.9,0000.0,0004.01,0011.00,0002.37
2024-05-25 06:13:00,SystemResetWarning,0823.6,5.00,000.00,030.7,029.9,000.0,039.2,032.4,012.1,0000.0,0003.94,0011.00,0002.38
2024-05-25 06:14:00,SystemResetWarning,0823.6,5.00,000.00,030.7,029.8,000.0,039.2,032.4,012.0,0000.0,0003.91,0010.83,0002.39
2024-05-25 06:15:00,SystemResetWarning,0823.6,5.00,000.00,030.7,029.8,000.0,039.2,032.4,012.1,0000.0,0003.91,0010.53,0002.39
2024-05-25 06:16:00,SystemResetWarning,0823.6,5.00,000.00,030.7,029.8,000.0,039.2,032.4,012.2,0000.0,0003.86,0010.18,0002.39
2024-05-25 06:17:00,SystemResetWarning,0823.6,4.99,000.00,030.7,029.8,000.0,039.1,032.4,012.1,0000.0,0003.81,0009.99,0002.37
2024-05-25 06:18:00,SystemResetWarning,0823.5,5.00,000.00,030.7,029.8,000.0,039.1,032.4,012.1,0000.0,0003.83,0009.97,0002.38
2024-05-25 06:19:00,SystemResetWarning,0823.5,5.00,000.00,030.7,029.8,000.0,039.1,032.4,012.0,0000.0,0003.92,0010.47,0002.40
2024-05-25 06:20:00,SystemResetWarning,0823.5,5.00,000.00,030.7,029.8,000.0,039.1,032.4,011.9,0000.0,0003.95,0010.54,0002.42
2024-05-25 06:21:00,SystemResetWarning,0823.5,5.01,000.00,030.7,029.8,000.0,039.1,032.4,012.0,0000.0,0003.95,0010.50,0002.41
2024-05-25 06:22:00,SystemResetWarning,0823.4,5.00,000.00,030.7,029.9,000.0,039.1,032.4,012.0,0000.0,0003.90,0010.48,0002.41
2024-05-25 06:23:00,SystemResetWarning,0823.5,5.00,000.00,030.7,029.8,000.0,039.1,032.4,012.1,0000.0,0003.93,0010.85,0002.42
2024-05-25 06:24:00,SystemResetWarning,0823.4,5.00,000.00,030.7,029.8,000.0,039.1,032.4,012.1,0000.0,0003.98,0010.93,0002.44
2024-05-25 06:25:00,SystemResetWarning,0823.4,5.00,000.00,030.7,029.9,000.0,039.1,032.4,012.1,0000.0,0004.01,0011.00,0002.45
2024-05-25 06:26:00,SystemResetWarning,0823.4,5.00,000.00,030.7,029.9,000.0,039.1,032.4,012.2,0000.0,0004.05,0012.08,0002.46
2024-05-25 06:27:00,SystemResetWarning,0823.4,5.00,000.00,030.7,029.9,000.0,039.1,032.4,012.2,0000.0,0004.03,0012.72,0002.47
2024-05-25 06:28:00,SystemResetWarning,0823.5,5.00,000.00,030.7,029.8,000.0,039.1,032.4,012.2,0000.0,0004.03,0013.81,0002.49
2024-05-25 06:29:00,SystemResetWarning,0823.5,5.00,000.00,030.7,029.8,000.0,039.1,032.4,012.2,0000.0,0003.96,0014.16,0002.49
2024-05-25 06:30:00,SystemResetWarning,0823.4,5.00,000.00,030.7,029.8,000.0,039.1,032.4,012.2,0000.0,0003.90,0013.77,0002.50
2024-05-25 06:31:00,SystemResetWarning,0823.5,5.00,000.00,030.7,029.8,000.0,039.1,032.4,012.3,0000.0,0003.89,0013.93,0002.50
2024-05-25 06:32:00,SystemResetWarning,0823.5,5.01,000.00,030.7,029.8,000.0,039.1,032.4,012.4,0000.0,0003.89,0014.20,0002.49
2024-05-25 06:33:00,SystemResetWarning,0823.4,5.00,000.00,030.7,029.8,000.0,039.1,032.4,012.4,0000.0,0003.93,0013.62,0002.52
2024-05-25 06:34:00,SystemResetWarning,0823.4,4.99,000.00,030.7,029.8,000.0,039.1,032.4,012.4,0000.0,0003.97,0013.53,0002.55
2024-05-25 06:35:00,SystemResetWarning,0823.4,5.00,000.00,030.7,029.8,000.0,039.1,032.4,012.4,0000.0,0003.99,0013.04,0002.56
2024-05-25 06:36:00,SystemResetWarning,0823.4,5.01,000.00,030.7,029.8,000.0,039.1,032.4,012.5,0000.0,0004.02,0013.03,0002.57
2024-05-25 06:37:00,SystemResetWarning,0823.4,5.01,000.00,030.7,029.8,000.0,039.1,032.3,012.4,0000.0,0003.96,0012.19,0002.58
2024-05-25 06:38:00,SystemResetWarning,0823.4,4.99,000.00,030.7,029.8,000.0,039.1,032.4,012.5,0000.0,0003.94,0011.82,0002.59
2024-05-25 06:39:00,SystemResetWarning,0823.3,4.99,000.00,030.7,029.8,000.0,039.1,032.4,012.3,0000.0,0003.95,0010.46,0002.60
2024-05-25 06:40:00,SystemResetWarning,0823.4,5.00,000.00,030.7,029.8,000.0,039.1,032.3,012.3,0000.0,0003.99,0010.14,0002.63
2024-05-25 06:41:00,SystemResetWarning,0823.4,5.01,000.00,030.7,029.8,000.0,039.1,032.3,012.4,0000.0,0004.03,0010.11,0002.66
2024-05-25 06:42:00,SystemResetWarning,0823.4,5.01,000.00,030.7,029.8,000.0,039.1,032.3,012.3,0000.0,0003.98,0009.94,0002.65
2024-05-25 06:43:00,SystemResetWarning,0823.4,5.00,000.00,030.6,029.8,000.0,039.1,032.3,012.2,0000.0,0004.04,0010.61,0002.68
2024-05-25 06:44:00,SystemResetWarning,0823.4,4.99,000.00,030.6,029.8,000.0,039.1,032.3,012.2,0000.0,0004.05,0011.11,0002.68
2024-05-25 06:45:00,SystemResetWarning,0823.4,5.00,000.00,030.6,029.7,000.0,039.1,032.3,012.3,0000.0,0004.05,0011.25,0002.69
2024-05-25 06:46:00,SystemResetWarning,0823.3,5.00,000.00,030.6,029.7,000.0,039.1,032.3,012.5,0000.0,0004.08,0011.48,0002.72
2024-05-25 06:47:00,SystemResetWarning,0823.3,5.01,000.00,030.6,029.7,000.0,039.1,032.3,013.0,0000.0,0004.10,0011.58,0002.72
2024-05-25 06:48:00,SystemResetWarning,0823.3,5.00,000.00,030.6,029.7,000.0,039.1,032.2,013.1,0000.0,0004.11,0011.44,0002.73
2024-05-25 06:49:00,SystemResetWarning,0823.3,5.00,000.00,030.6,029.7,000.0,039.1,032.2,012.9,0000.0,0004.17,0011.71,0002.73
2024-05-25 06:50:00,SystemResetWarning,0823.3,5.00,000.00,030.6,029.7,000.0,039.0,032.3,012.6,0000.0,0004.23,0012.33,0002.71
2024-05-25 06:51:00,SystemResetWarning,0823.2,5.00,000.00,030.6,029.7,000.0,039.0,032.3,012.8,0000.0,0004.23,0012.53,0002.70
2024-05-25 06:52:00,SystemResetWarning,0823.1,5.00,000.00,030.6,029.7,000.0,039.0,032.3,012.8,0000.0,0004.19,0012.60,0002.68
2024-05-25 06:53:00,SystemResetWarning,0823.1,5.00,000.00,030.6,029.7,000.0,039.0,032.2,012.6,0000.0,0004.25,0012.58,0002.69
2024-05-25 06:54:00,SystemResetWarning,0823.1,5.00,000.00,030.6,029.7,000.0,039.0,032.3,012.3,0000.0,0004.20,0011.78,0002.68
2024-05-25 06:55:00,SystemResetWarning,0823.1,5.00,000.00,030.6,029.7,000.0,039.0,032.3,012.0,0000.0,0004.17,0011.17,0002.67
2024-05-25 06:56:00,SystemResetWarning,0823.0,5.00,000.00,030.6,029.7,000.0,039.0,032.2,011.8,0000.0,0004.15,0010.97,0002.65
2024-05-25 06:57:00,SystemResetWarning,0823.0,5.00,000.00,030.6,029.7,000.0,039.0,032.2,011.7,0000.0,0004.11,0010.77,0002.60
2024-05-25 06:58:00,SystemResetWarning,0823.0,5.01,000.00,030.6,029.7,000.0,039.0,032.2,011.6,0000.0,0004.07,0010.56,0002.58
2024-05-25 06:59:00,SystemResetWarning,0823.0,5.01,000.00,030.6,029.7,000.0,039.0,032.2,011.6,0000.0,0004.11,0010.66,0002.56
